TimeCST,TemperatureF,Dew PointF,Humidity,Sea Level PressureIn,VisibilityMPH,Wind Direction,Wind SpeedMPH,Gust SpeedMPH,PrecipitationIn,Events,Conditions,WindDirDegrees,DateUTC
12:15 AM,12.9,1.8,61,30.12,10.0,NW,5.8,-,N/A,,Clear,320,2014-01-05 06:15:00
12:35 AM,12.7,1.8,62,30.12,10.0,NW,5.8,-,N/A,,Clear,320,2014-01-05 06:35:00
12:55 AM,12.6,1.4,61,30.13,10.0,NNW,4.6,-,N/A,,Clear,330,2014-01-05 06:55:00
1:15 AM,12.4,1.0,61,30.13,10.0,NNW,6.9,-,N/A,,Clear,330,2014-01-05 07:15:00
1:35 AM,12.0,1.0,61,30.13,10.0,NW,5.8,-,N/A,,Clear,320,2014-01-05 07:35:00
1:55 AM,11.8,0.1,59,30.13,10.0,NNW,5.8,-,N/A,,Clear,340,2014-01-05 07:55:00
2:15 AM,11.3,-0.4,59,30.13,10.0,NNW,5.8,-,N/A,,Clear,340,2014-01-05 08:15:00
2:35 AM,10.4,-1.5,59,30.14,10.0,NNW,4.6,-,N/A,,Clear,340,2014-01-05 08:35:00
2:55 AM,10.2,-1.8,58,30.14,10.0,NNW,6.9,-,N/A,,Clear,340,2014-01-05 08:55:00
3:15 AM,9.9,-2.2,58,30.16,10.0,NNW,5.8,-,N/A,,Clear,330,2014-01-05 09:15:00
3:35 AM,9.5,-1.8,60,30.16,10.0,NW,5.8,-,N/A,,Clear,320,2014-01-05 09:35:00
3:55 AM,9.0,-2.2,61,30.16,10.0,NW,5.8,-,N/A,,Clear,320,2014-01-05 09:55:00
4:15 AM,8.4,-2.4,62,30.16,10.0,NW,9.2,-,N/A,,Scattered Clouds,320,2014-01-05 10:15:00
4:35 AM,7.9,-3.1,61,30.16,10.0,NNW,5.8,-,N/A,,Clear,330,2014-01-05 10:35:00
4:55 AM,7.3,-3.8,60,30.16,10.0,NNW,5.8,-,N/A,,Mostly Cloudy,330,2014-01-05 10:55:00
5:15 AM,6.8,-5.4,57,30.16,10.0,NNW,9.2,-,N/A,,Overcast,340,2014-01-05 11:15:00
5:35 AM,6.6,-5.4,58,30.17,10.0,NW,6.9,-,N/A,,Overcast,320,2014-01-05 11:35:00
5:55 AM,6.3,-5.8,58,30.18,10.0,NW,8.1,-,N/A,,Overcast,320,2014-01-05 11:55:00
6:15 AM,5.9,-6.0,58,30.18,10.0,NW,6.9,-,N/A,,Overcast,310,2014-01-05 12:15:00
6:35 AM,5.4,-6.0,60,30.17,10.0,NNW,9.2,16.1,N/A,,Overcast,330,2014-01-05 12:35:00
6:55 AM,5.4,-6.0,60,30.17,10.0,NW,8.1,-,N/A,,Overcast,320,2014-01-05 12:55:00
7:15 AM,5.0,-6.2,60,30.17,10.0,NNW,9.2,-,N/A,,Mostly Cloudy,330,2014-01-05 13:15:00
7:35 AM,4.5,-6.7,60,30.17,10.0,NW,10.4,-,N/A,,Mostly Cloudy,320,2014-01-05 13:35:00
7:55 AM,4.1,-7.2,59,30.16,10.0,NNW,12.7,-,N/A,,Overcast,330,2014-01-05 13:55:00
8:15 AM,3.9,-7.6,59,30.17,10.0,NNW,10.4,-,N/A,,Overcast,330,2014-01-05 14:15:00
8:35 AM,3.9,-6.9,61,30.17,10.0,NNW,11.5,-,N/A,,Overcast,330,2014-01-05 14:35:00
8:55 AM,3.9,-8.0,58,30.19,10.0,NW,8.1,-,N/A,,Overcast,320,2014-01-05 14:55:00
9:15 AM,4.1,-7.8,58,30.20,10.0,WNW,4.6,-,N/A,,Overcast,300,2014-01-05 15:15:00
9:35 AM,4.5,-8.5,55,30.22,10.0,NW,8.1,-,N/A,,Mostly Cloudy,310,2014-01-05 15:35:00
9:55 AM,4.1,-9.8,53,30.21,10.0,NW,8.1,-,N/A,,Mostly Cloudy,320,2014-01-05 15:55:00
10:15 AM,3.9,-10.5,51,30.20,10.0,NW,11.5,-,N/A,,Scattered Clouds,310,2014-01-05 16:15:00
10:35 AM,3.9,-10.8,51,30.20,10.0,NW,10.4,-,N/A,,Scattered Clouds,320,2014-01-05 16:35:00
10:55 AM,3.9,-11.4,49,30.19,10.0,NNW,10.4,-,N/A,,Clear,330,2014-01-05 16:55:00
11:15 AM,3.6,-11.6,50,30.17,10.0,NW,11.5,16.1,N/A,,Clear,320,2014-01-05 17:15:00
11:35 AM,3.2,-11.7,50,30.16,10.0,NW,9.2,-,N/A,,Scattered Clouds,310,2014-01-05 17:35:00
11:55 AM,3.2,-11.6,50,30.16,10.0,NW,9.2,-,N/A,,Scattered Clouds,310,2014-01-05 17:55:00
12:15 PM,3.2,-12.3,49,30.14,10.0,NW,10.4,-,N/A,,Scattered Clouds,310,2014-01-05 18:15:00
12:35 PM,3.2,-13.0,47,30.14,10.0,NW,9.2,-,N/A,,Scattered Clouds,310,2014-01-05 18:35:00
12:55 PM,3.2,-13.9,45,30.13,10.0,NNW,11.5,16.1,N/A,,Scattered Clouds,330,2014-01-05 18:55:00
1:15 PM,3.6,-13.7,45,30.13,10.0,NW,10.4,-,N/A,,Clear,310,2014-01-05 19:15:00
1:35 PM,3.2,-14.3,44,30.12,10.0,NW,9.2,-,N/A,,Scattered Clouds,310,2014-01-05 19:35:00
1:55 PM,3.7,-14.3,43,30.11,10.0,NW,10.4,-,N/A,,Scattered Clouds,310,2014-01-05 19:55:00
2:15 PM,3.7,-15.2,41,30.11,10.0,NNW,12.7,-,N/A,,Clear,330,2014-01-05 20:15:00
2:35 PM,3.2,-15.9,41,30.11,10.0,NNW,10.4,-,N/A,,Clear,330,2014-01-05 20:35:00
2:55 PM,3.6,-15.3,41,30.13,10.0,NW,6.9,-,N/A,,Clear,320,2014-01-05 20:55:00
3:15 PM,3.2,-15.9,41,30.13,10.0,NW,9.2,-,N/A,,Clear,320,2014-01-05 21:15:00
3:35 PM,3.2,-15.2,42,30.13,10.0,NW,9.2,-,N/A,,Clear,320,2014-01-05 21:35:00
3:55 PM,2.8,-15.9,42,30.13,10.0,NW,9.2,-,N/A,,Clear,310,2014-01-05 21:55:00
4:15 PM,2.3,-15.9,43,30.13,10.0,NW,6.9,-,N/A,,Clear,320,2014-01-05 22:15:00
4:35 PM,1.9,-14.8,46,30.13,10.0,NW,9.2,-,N/A,,Clear,310,2014-01-05 22:35:00
4:55 PM,1.2,-15.5,45,30.12,10.0,NW,13.8,17.3,N/A,,Clear,320,2014-01-05 22:55:00
5:15 PM,0.5,-15.5,47,30.12,10.0,NW,11.5,-,N/A,,Clear,310,2014-01-05 23:15:00
5:35 PM,0.5,-15.9,46,30.13,10.0,NW,15.0,-,N/A,,Clear,310,2014-01-05 23:35:00
5:55 PM,-0.4,-15.3,49,30.12,10.0,WNW,10.4,-,N/A,,Clear,290,2014-01-05 23:55:00
6:15 PM,-0.8,-15.7,49,30.11,10.0,WNW,10.4,-,N/A,,Clear,300,2014-01-06 00:15:00
6:35 PM,-0.8,-15.7,49,30.11,10.0,WNW,8.1,18.4,N/A,,Clear,290,2014-01-06 00:35:00
6:55 PM,-1.3,-15.9,50,30.11,10.0,WNW,5.8,16.1,N/A,,Clear,300,2014-01-06 00:55:00
7:15 PM,-1.7,-16.1,51,30.10,10.0,WNW,11.5,-,N/A,,Clear,300,2014-01-06 01:15:00
7:35 PM,-1.7,-16.6,49,30.09,10.0,WNW,12.7,19.6,N/A,,Clear,300,2014-01-06 01:35:00
7:55 PM,-1.7,-16.8,49,30.09,10.0,WNW,12.7,19.6,N/A,,Clear,300,2014-01-06 01:55:00
8:15 PM,-2.2,-17.1,49,30.09,10.0,WNW,12.7,18.4,N/A,,Clear,300,2014-01-06 02:15:00
8:35 PM,-2.6,-17.5,49,30.09,10.0,WNW,11.5,18.4,N/A,,Clear,300,2014-01-06 02:35:00
8:55 PM,-3.3,-17.9,50,30.08,10.0,WNW,9.2,18.4,N/A,,Clear,300,2014-01-06 02:55:00
9:15 PM,-3.6,-17.7,51,30.08,10.0,WNW,9.2,-,N/A,,Clear,300,2014-01-06 03:15:00
9:35 PM,-4.0,-17.7,52,30.07,10.0,NW,10.4,-,N/A,,Clear,310,2014-01-06 03:35:00
9:55 PM,-4.2,-17.3,53,30.07,10.0,NW,9.2,-,N/A,,Clear,310,2014-01-06 03:55:00
10:15 PM,-4.5,-17.5,54,30.07,10.0,NW,11.5,20.7,N/A,,Clear,310,2014-01-06 04:15:00
10:35 PM,-5.1,-17.9,54,30.06,10.0,NW,15.0,19.6,N/A,,Clear,310,2014-01-06 04:35:00
10:55 PM,-5.8,-18.4,55,30.06,10.0,NW,11.5,20.7,N/A,,Clear,310,2014-01-06 04:55:00
11:15 PM,-6.3,-19.1,54,30.06,10.0,NW,10.4,20.7,N/A,,Scattered Clouds,310,2014-01-06 05:15:00
11:35 PM,-6.7,-19.5,54,30.05,10.0,NW,15.0,21.9,N/A,,Scattered Clouds,320,2014-01-06 05:35:00
11:55 PM,-7.6,-19.7,56,30.05,10.0,WNW,10.4,17.3,N/A,,Scattered Clouds,300,2014-01-06 05:55:00